Location: Beloeil
(45.5670°N, 73.2000°W)
Time: 19:52:41
(UTC-05:00)

Daily predictions for brighter satellites

Satellite Brightness Start Highest point End
(mag) Time Altitude Azimuth Time Altitude Azimuth Time Altitude Azimuth
Cosmos 1536 3.8 18:01:30 10° SE 18:04:49 25° E 18:08:08 10° NNE
Okean 1 3.7 18:01:20 10° NNW 18:05:25 73° W 18:09:27 10° S
COSMO-SKYMED 1 2.7 18:07:49 10° NNE 18:12:12 87° WNW 18:16:32 10° SSW
Cosmos 1340 2.7 18:10:01 10° NNW 18:13:49 84° WSW 18:17:35 10° S
Cosmos 407 Rocket 4.4 18:11:25 10° SW 18:16:35 54° WNW 18:21:50 10° NNE
Cosmos 1602 3.7 18:13:02 10° S 18:16:53 63° E 18:20:46 10° NNE
Cosmos 1741 Rocket 4.3 18:13:46 10° S 18:18:41 44° ESE 18:23:38 10° NNE
Cosmos 1833 4.2 18:13:48 10° SSW 18:19:30 89° ESE 18:25:11 10° NNE
Resurs 01 Rocket 2.3 18:20:05 10° SE 18:24:03 33° ENE 18:28:01 10° N
NOAA 12 4.1 18:19:15 10° SSE 18:24:35 86° ENE 18:29:57 10° NNW
Meteor 1-11 Rocket 3.8 18:18:50 10° S 18:24:36 66° E 18:30:30 10° NNE
Cosmos 2333 Rocket 2.9 18:19:57 10° NNW 18:25:11 34° NE 18:30:23 10° ESE
Cosmos 1140 Rocket 3.4 18:22:32 10° SSW 18:27:40 85° ESE 18:32:52 10° NNE
Cosmos 614 Rocket 3.9 18:23:37 10° S 18:28:38 67° ESE 18:33:41 10° NNE
NOSS 8 (E) 4.5 18:28:03 10° SW 18:31:30 82° SE 18:35:24 10° NE
FENGYUN 3A 3.8 18:26:27 10° SSE 18:31:43 55° ENE 18:37:01 10° N
Meteor 1-28 Rocket 4.0 18:30:43 10° N 18:34:28 56° WNW 18:38:12 10° SSW
Resurs 1-3 4.2 18:30:36 10° SE 18:34:35 36° ENE 18:38:38 10° N
Cosmos 2181 Rocket 4.1 18:28:52 10° N 18:35:10 84° W 18:41:32 10° S
Cosmos 1570 Rocket 4.0 18:29:58 10° NNW 18:35:14 88° ENE 18:40:29 10° SSE
ATLAS CENTAUR R/B 3.5 18:34:36 10° SSE 18:35:33 11° SE 18:36:03 11° SE
USA 229 DEB 3.8 18:31:41 10° NW 18:38:50 76° NE 18:46:05 10° SE
USA 229 3.8 18:31:47 10° NW 18:38:55 76° NE 18:46:11 10° SE
Genesis I 4.2 18:35:35 10° NW 18:39:25 49° WSW 18:43:11 10° SSE
Cosmos 1238 Rocket 3.1 18:36:36 10° NNW 18:39:29 50° W 18:42:25 10° S
Cosmos 1633 3.2 18:36:19 10° SSW 18:39:58 60° W 18:43:38 10° N
Okean 1 Rocket 3.0 18:38:23 10° S 18:42:52 85° E 18:47:23 10° N
Cosmos 468 Rocket 4.4 18:38:37 10° N 18:43:36 42° ENE 18:48:36 10° SE
Cosmos 1892 Rocket 4.2 18:40:34 10° N 18:44:30 33° ENE 18:48:28 10° SE
Cosmos 1709 Rocket 4.4 18:39:01 10° SSW 18:45:11 67° W 18:51:18 10° N
Cosmos 2074 Rocket 4.0 18:40:30 10° S 18:46:36 58° E 18:52:45 10° NNE
NOSS 8 (H) 4.4 18:43:26 10° SW 18:46:49 84° SE 18:50:33 10° NE
Cosmos 1025 Rocket 3.0 18:42:50 10° N 18:47:13 66° E 18:51:35 10° SSE
SL-08 ROCKET BODY 4.4 18:44:44 10° S 18:50:52 69° E 18:57:02 10° NNE
NOSS 3-1 (A) 4.5 18:44:12 10° NNW 18:51:09 43° NE 18:56:37 19° E
Spot 2 Rocket 3.5 18:46:33 10° SSE 18:51:32 63° ENE 18:56:34 10° N
USA 215 4.2 18:46:41 10° NE 18:52:44 42° NNW 18:58:46 10° W
Cosmos 2184 Rocket 4.0 18:46:47 10° S 18:52:58 62° E 18:59:08 10° NNE
Meteor 1-5 Rocket 4.3 18:47:30 10° S 18:53:20 60° E 18:59:06 10° NNE
ATLAS 2AS CENTAUR R/B 4.3 18:49:16 10° NW 18:55:49 26° NNE 19:00:39 15° ENE
FengYun 1-2 T 4.2 18:51:12 10° SSE 18:56:41 86° ENE 19:02:14 10° NNW
USA 186 3.3 19:00:27 19° NNE 19:00:27 19° NNE 19:01:38 10° NNE
Spot 1 4.2 19:00:46 19° SE 19:03:26 46° ENE 19:07:29 10° N
Cosmos 1814 Rocket 4.2 18:59:39 10° NNW 19:04:39 47° ENE 19:07:35 23° SE
ERS-1 Rocket 4.4 19:05:10 20° ENE 19:05:10 20° ENE 19:08:39 10° NNE
BREEZE-M DEB (TANK) 2.7 19:01:59 10° SW 19:05:13 36° SSE 19:05:21 35° SE
Cosmos 1850 Rocket 4.3 19:02:22 10° SSW 19:07:39 70° WNW 19:13:01 10° NNE
Envisat 3.7 19:06:49 27° E 19:08:10 31° ENE 19:12:37 10° N
Nadezhda 3 Rocket 4.1 19:02:21 10° N 19:08:19 48° ENE 19:14:17 10° SSE
NOSS 3-1 (C) 4.1 19:01:59 10° NW 19:09:19 61° NE 19:14:48 22° ESE
NOSS 0 Rocket 3.8 19:03:51 10° NNW 19:10:02 72° ENE 19:15:08 15° SE
SJ-6B 4.3 19:06:19 10° SSW 19:10:03 39° W 19:13:43 10° NNW
Cosmos 405 Rocket 2.7 19:06:03 10° N 19:10:06 64° ENE 19:13:11 16° SSE
Cosmos 1544 Rocket 3.8 19:06:18 10° SSE 19:10:22 42° E 19:14:28 10° NNE
Cosmos 2237 Rocket 2.3 19:05:50 10° NNW 19:11:27 54° ENE 19:14:36 25° SE
ALOS 2.8 19:09:03 10° S 19:13:39 61° W 19:18:19 10° NNW
Cosmos 371 Rocket 4.3 19:09:58 10° N 19:14:09 28° ENE 19:14:25 28° ENE
HJ-1C 4.5 19:11:36 10° S 19:14:51 46° W 19:18:08 10° NNW
COSMOS 2428 3.5 19:09:57 10° NW 19:15:27 53° WSW 19:20:57 10° S
Cosmos 2297 Rocket 3.2 19:10:59 10° SSE 19:14:23 25° SE 19:14:23 25° SE
H-2A R/B 2.8 19:12:58 10° S 19:16:41 77° WSW 19:20:29 10° NNW
CZ-2D R/B 3.1 19:14:14 15° SSE 19:17:23 80° ENE 19:21:14 10° N
Cosmos 2341 Rocket 4.3 19:15:22 10° SSE 19:21:16 42° E 19:27:13 10° NNE
Cosmos 2285 Rocket 4.3 19:15:49 10° NNW 19:22:15 72° WSW 19:28:36 10° S
Cosmos 2154 Rocket 4.0 19:16:17 10° SSE 19:22:26 56° E 19:28:37 10° NNE
Cosmos 2219 Rocket 2.2 19:18:07 10° NNW 19:23:44 79° WSW 19:28:57 12° SSE
Gbstr 26 Del rocket 3.1 19:20:52 10° W 19:24:33 54° NNW 19:25:40 38° NNE
Okean 2 3.8 19:23:27 10° NNW 19:27:36 66° W 19:31:44 10° S
Helios 1B rocket 2.3 19:29:52 10° NNE 19:34:01 67° ESE 19:38:09 10° S
Cosmos 2219 3.9 19:28:28 10° SW 19:34:07 57° WNW 19:39:47 10° NNE
Helios 1A 2.9 19:33:28 28° S 19:35:35 83° WSW 19:39:47 10° NNW
Atlas Centaur 2 4.5 19:33:42 10° S 19:35:39 11° SSE 19:35:47 11° SSE
Cosmos 2227 Rocket 2.2 19:30:29 10° S 19:35:57 52° ESE 19:38:28 30° NE
Cosmos 1486 Rocket 4.2 19:31:15 10° S 19:43:42 - NNE 19:36:15 48° ESE
Abrixas rocket 2.6 19:34:18 10° WSW 19:37:11 63° W 19:37:11 63° W
Cosmos 1441 Rocket 3.7 19:35:11 10° N 19:38:20 50° NNE 19:38:20 50° NNE
Cosmos 1939 Rocket 4.2 19:45:05 29° NNE 19:45:05 29° NNE 19:47:15 10° N
Cosmos 841 Rocket 3.4 19:41:00 10° NNW 19:46:07 62° ENE 19:46:24 61° E
SL-16 R/B 2.5 19:41:46 10° NNW 19:47:15 46° ENE 19:47:22 46° ENE
Cosmos 1455 Rocket 2.9 19:43:26 10° S 19:47:49 87° E 19:52:12 10° N
H-2A R/B 4.3 19:50:38 12° NNE 19:50:38 12° NNE 19:51:24 10° NNE
Cosmos 962 Rocket 4.3 19:46:35 10° S 19:52:43 71° E 19:58:50 10° NNE
Meteor 2-8 Rocket 4.3 19:47:03 10° N 19:53:08 70° E 19:54:41 50° SE
Cosmos 1437 4.2 19:50:20 10° NNW 19:52:45 37° NW 19:52:45 37° NW
Cosmos 1763 Rocket 3.3 19:51:36 10° NNW 19:56:46 89° WSW 19:57:29 67° SSE
Resurs 01 Rocket 3.7 19:56:53 10° SSW 20:00:34 26° W 20:04:16 10° NW
Cosmos 2333 Rocket 3.2 20:04:09 10° NW 20:09:33 43° WSW 20:12:59 21° SSW
GEOS 3 Rocket 3.8 20:08:20 42° NNE 20:10:06 71° NW 20:15:22 10° SW
Cosmos 1980 4.3 20:05:10 10° NW 20:10:38 52° WSW 20:12:50 33° SSW
USA 215 4.4 20:33:11 29° NNE 20:34:49 33° N 20:40:28 10° WNW
SL-8 Rocket 4.4 20:37:45 53° N 20:37:45 53° N 20:42:28 10° N
Cosmos 2082 4.1 20:32:37 10° SW 20:37:59 60° WNW 20:37:59 60° WNW
NOSS 3-1 (A) 4.3 20:35:04 10° NW 20:42:33 62° WSW 20:44:06 53° SSW
ERS-1 Rocket 4.2 20:45:10 39° NW 20:45:10 39° NW 20:48:25 10° NNW
Envisat 4.3 20:47:02 36° W 20:47:06 36° W 20:51:47 10° NNW
ATLAS 2AS CENTAUR R/B 3.2 20:40:39 10° NW 20:48:06 57° NNE 20:48:06 57° NNE
Cosmos 2237 Rocket 4.0 20:50:34 10° NW 20:55:08 25° WSW 20:56:29 23° WSW
Cosmos 2297 Rocket 3.9 20:53:59 10° SW 20:56:25 25° WSW 20:56:25 25° WSW
Cosmos 2227 Rocket 3.9 21:15:26 10° WSW 21:20:17 29° NW 21:20:36 28° NW
H-2A R/B 4.5 21:31:16 17° NNW 21:31:16 17° NNW 21:32:29 10° NNW
SL-16 R/B 4.2 21:26:18 10° NW 21:29:17 24° WNW 21:29:17 24° WNW
